• In Belgien
  • Länderverzeichnis
  • Für 7 Tage
  • Wassertemperatur
  • Satellitenkarten
  • Wetterkarte
  • Widgets
  • user-avatar
    Anmelden

    Stündliche Wetter Jerewan

    Heute, 21 Juli, Samstag

    Zeit Temperatur Niederschläge Wind Luftdruck Luftfeuchtigkeit
    00:00 +25°C° 0 mm 3 m/S 684 mmHg 54%
    01:00 +24°C° 0 mm 3 m/S 685 mmHg 56%
    02:00 +24°C° 0 mm 3 m/S 685 mmHg 59%
    03:00 +23°C° 0 mm 2 m/S 684 mmHg 60%
    04:00 +23°C° 0 mm 2 m/S 684 mmHg 60%
    05:00 +23°C° 0 mm 2 m/S 685 mmHg 60%
    06:00 +24°C° 0 mm 2 m/S 685 mmHg 60%
    07:00 +26°C° 0 mm 2 m/S 685 mmHg 53%
    08:00 +28°C° 0 mm 2 m/S 686 mmHg 46%
    09:00 +30°C° 0 mm 2 m/S 686 mmHg 40%
    10:00 +31°C° 0,1 mm 2 m/S 686 mmHg 36%
    11:00 +32°C° 0,1 mm 2 m/S 686 mmHg 33%
    12:00 +35°C° 0,1 mm 2 m/S 686 mmHg 30%
    13:00 +35°C° 0,1 mm 2 m/S 686 mmHg 29%
    14:00 +36°C° 0,1 mm 2 m/S 685 mmHg 28%
    15:00 +36°C° 0 mm 3 m/S 685 mmHg 28%
    16:00 +35°C° 0,2 mm 3 m/S 685 mmHg 31%
    17:00 +34°C° 0,2 mm 3 m/S 685 mmHg 35%
    18:00 +34°C° 0,2 mm 4 m/S 685 mmHg 38%
    19:00 +30°C° 0,3 mm 4 m/S 686 mmHg 45%
    20:00 +28°C° 0,3 mm 4 m/S 686 mmHg 52%
    21:00 +26°C° 0,3 mm 3 m/S 686 mmHg 59%
    22:00 +25°C° 0,1 mm 3 m/S 686 mmHg 62%
    23:00 +25°C° 0,1 mm 3 m/S 686 mmHg 64%

    Morgen, 22 Juli, Sonntag

    Zeit Temperatur Niederschläge Wind Luftdruck Luftfeuchtigkeit
    00:00 +24°C° 0,1 mm 3 m/S 686 mmHg 66%
    01:00 +22°C° 0,1 mm 3 m/S 686 mmHg 68%
    02:00 +22°C° 0,1 mm 3 m/S 686 mmHg 71%
    03:00 +21°C° 0,1 mm 2 m/S 686 mmHg 73%
    04:00 +23°C° 0,1 mm 2 m/S 686 mmHg 72%
    05:00 +23°C° 0,1 mm 2 m/S 686 mmHg 71%
    06:00 +23°C° 0,1 mm 2 m/S 686 mmHg 71%
    07:00 +25°C° 0 mm 2 m/S 686 mmHg 64%
    08:00 +27°C° 0 mm 2 m/S 686 mmHg 56%
    09:00 +29°C° 0 mm 2 m/S 687 mmHg 49%
    10:00 +30°C° 0,1 mm 2 m/S 686 mmHg 45%
    11:00 +31°C° 0,1 mm 2 m/S 686 mmHg 40%
    12:00 +32°C° 0,1 mm 2 m/S 686 mmHg 35%
    13:00 +34°C° 0,2 mm 3 m/S 686 mmHg 34%
    14:00 +34°C° 0,2 mm 3 m/S 685 mmHg 33%
    15:00 +35°C° 0,2 mm 3 m/S 685 mmHg 31%
    16:00 +34°C° 0,3 mm 3 m/S 685 mmHg 34%
    17:00 +33°C° 0,3 mm 3 m/S 685 mmHg 37%
    18:00 +31°C° 0,3 mm 2 m/S 685 mmHg 41%
    19:00 +29°C° 0,4 mm 2 m/S 685 mmHg 46%
    20:00 +28°C° 0,4 mm 2 m/S 685 mmHg 52%
    21:00 +26°C° 0,4 mm 2 m/S 685 mmHg 58%
    22:00 +25°C° 0,2 mm 2 m/S 685 mmHg 61%
    23:00 +24°C° 0,2 mm 2 m/S 686 mmHg 65%

    übermorgen, 23 Juli, Montag

    Zeit Temperatur Niederschläge Wind Luftdruck Luftfeuchtigkeit
    00:00 +24°C° 0,2 mm 2 m/S 686 mmHg 68%
    01:00 +23°C° 0,1 mm 2 m/S 685 mmHg 70%
    02:00 +23°C° 0,1 mm 2 m/S 685 mmHg 72%
    03:00 +21°C° 0,1 mm 2 m/S 685 mmHg 75%
    04:00 +23°C° 0,2 mm 2 m/S 685 mmHg 74%
    05:00 +23°C° 0,2 mm 2 m/S 685 mmHg 73%
    06:00 +23°C° 0,2 mm 2 m/S 685 mmHg 72%
    07:00 +25°C° 0,1 mm 2 m/S 685 mmHg 65%
    08:00 +27°C° 0,1 mm 2 m/S 685 mmHg 57%
    09:00 +28°C° 0,1 mm 2 m/S 685 mmHg 50%
    10:00 +30°C° 0,4 mm 2 m/S 685 mmHg 46%
    11:00 +31°C° 0,4 mm 2 m/S 685 mmHg 42%
    12:00 +32°C° 0,4 mm 2 m/S 685 mmHg 38%
    13:00 +32°C° 0,4 mm 2 m/S 684 mmHg 37%
    14:00 +34°C° 0,4 mm 2 m/S 684 mmHg 35%
    15:00 +34°C° 0,4 mm 2 m/S 684 mmHg 34%
    16:00 +34°C° 0,6 mm 2 m/S 684 mmHg 37%
    17:00 +33°C° 0,6 mm 3 m/S 684 mmHg 41%
    18:00 +31°C° 0,6 mm 3 m/S 683 mmHg 44%
    19:00 +29°C° 0,4 mm 3 m/S 684 mmHg 49%
    20:00 +28°C° 0,4 mm 2 m/S 684 mmHg 55%
    21:00 +26°C° 0,4 mm 2 m/S 685 mmHg 60%
    22:00 +25°C° 0,2 mm 2 m/S 685 mmHg 62%
    23:00 +24°C° 0,2 mm 1 m/S 685 mmHg 64%

    24 Juli, Dienstag

    Zeit Temperatur Niederschläge Wind Luftdruck Luftfeuchtigkeit
    00:00 +24°C° 0,2 mm 1 m/S 685 mmHg 66%
    01:00 +23°C° 0,2 mm 1 m/S 685 mmHg 68%
    02:00 +23°C° 0,2 mm 1 m/S 685 mmHg 69%
    03:00 +22°C° 0,2 mm 1 m/S 685 mmHg 71%
    04:00 +23°C° 0,1 mm 1 m/S 685 mmHg 69%
    05:00 +23°C° 0,1 mm 1 m/S 685 mmHg 68%
    06:00 +24°C° 0,1 mm 1 m/S 685 mmHg 67%
    07:00 +26°C° 0 mm 1 m/S 685 mmHg 58%
    08:00 +28°C° 0 mm 1 m/S 685 mmHg 49%
    09:00 +30°C° 0 mm 2 m/S 685 mmHg 41%
    10:00 +31°C° 0 mm 2 m/S 685 mmHg 37%
    11:00 +34°C° 0 mm 2 m/S 685 mmHg 33%
    12:00 +35°C° 0 mm 2 m/S 685 mmHg 29%
    13:00 +36°C° 0 mm 2 m/S 685 mmHg 27%
    14:00 +37°C° 0 mm 2 m/S 685 mmHg 26%
    15:00 +37°C° 0 mm 3 m/S 685 mmHg 24%
    16:00 +37°C° 0 mm 2 m/S 685 mmHg 26%
    17:00 +36°C° 0 mm 2 m/S 685 mmHg 28%
    18:00 +36°C° 0 mm 2 m/S 685 mmHg 30%
    19:00 +34°C° 0 mm 2 m/S 685 mmHg 35%
    20:00 +30°C° 0 mm 2 m/S 685 mmHg 41%
    21:00 +28°C° 0 mm 2 m/S 686 mmHg 46%
    22:00 +28°C° 0 mm 2 m/S 686 mmHg 50%
    23:00 +27°C° 0 mm 2 m/S 686 mmHg 53%

    25 Juli, Mittwoch

    Zeit Temperatur Niederschläge Wind Luftdruck Luftfeuchtigkeit
    00:00 +27°C° 0 mm 2 m/S 686 mmHg 56%
    01:00 +26°C° 0 mm 2 m/S 686 mmHg 57%
    02:00 +26°C° 0 mm 2 m/S 686 mmHg 57%
    03:00 +25°C° 0 mm 2 m/S 686 mmHg 58%
    04:00 +26°C° 0 mm 1 m/S 686 mmHg 56%
    05:00 +26°C° 0 mm 1 m/S 686 mmHg 55%
    06:00 +27°C° 0 mm 1 m/S 687 mmHg 53%
    07:00 +29°C° 0 mm 2 m/S 687 mmHg 46%
    08:00 +31°C° 0 mm 2 m/S 687 mmHg 38%
    09:00 +35°C° 0 mm 2 m/S 687 mmHg 31%
    10:00 +36°C° 0 mm 2 m/S 687 mmHg 28%
    11:00 +37°C° 0 mm 3 m/S 687 mmHg 25%
    12:00 +39°C° 0 mm 3 m/S 687 mmHg 22%
    13:00 +40°C° 0 mm 3 m/S 686 mmHg 21%
    14:00 +40°C° 0 mm 3 m/S 686 mmHg 20%
    15:00 +42°C° 0 mm 4 m/S 686 mmHg 19%
    16:00 +40°C° 0 mm 3 m/S 685 mmHg 22%
    17:00 +39°C° 0 mm 3 m/S 685 mmHg 25%
    18:00 +39°C° 0 mm 3 m/S 685 mmHg 28%
    19:00 +36°C° 0 mm 3 m/S 685 mmHg 35%
    20:00 +34°C° 0 mm 3 m/S 685 mmHg 42%
    21:00 +30°C° 0 mm 3 m/S 685 mmHg 50%
    22:00 +30°C° 0 mm 3 m/S 686 mmHg 52%
    23:00 +29°C° 0 mm 3 m/S 686 mmHg 54%

    26 Juli, Donnerstag

    Zeit Temperatur Niederschläge Wind Luftdruck Luftfeuchtigkeit
    00:00 +29°C° 0 mm 3 m/S 686 mmHg 56%
    01:00 +28°C° 0 mm 2 m/S 686 mmHg 57%
    02:00 +28°C° 0 mm 2 m/S 686 mmHg 58%
    03:00 +28°C° 0 mm 2 m/S 686 mmHg 59%
    04:00 +28°C° 0 mm 2 m/S 686 mmHg 58%
    05:00 +28°C° 0 mm 2 m/S 686 mmHg 57%
    06:00 +28°C° 0 mm 2 m/S 687 mmHg 56%
    07:00 +31°C° 0 mm 2 m/S 687 mmHg 49%
    08:00 +34°C° 0 mm 2 m/S 687 mmHg 41%
    09:00 +36°C° 0 mm 2 m/S 687 mmHg 34%
    10:00 +38°C° 0 mm 2 m/S 687 mmHg 31%
    11:00 +39°C° 0 mm 3 m/S 687 mmHg 27%
    12:00 +42°C° 0 mm 3 m/S 687 mmHg 24%
    13:00 +43°C° 0,1 mm 3 m/S 686 mmHg 23%
    14:00 +43°C° 0,1 mm 4 m/S 686 mmHg 23%
    15:00 +44°C° 0,1 mm 4 m/S 686 mmHg 22%
    16:00 +43°C° 0,2 mm 4 m/S 686 mmHg 25%
    17:00 +42°C° 0,2 mm 4 m/S 686 mmHg 28%
    18:00 +40°C° 0,2 mm 4 m/S 686 mmHg 32%
    19:00 +37°C° 0 mm 4 m/S 686 mmHg 38%
    20:00 +35°C° 0 mm 3 m/S 686 mmHg 45%
    21:00 +33°C° 0 mm 3 m/S 687 mmHg 51%
    22:00 +31°C° 0 mm 3 m/S 687 mmHg 53%
    23:00 +30°C° 0 mm 3 m/S 687 mmHg 55%
    Mehr zeigen